Regional Weather Roundup
Issued by NWS Upton, NY

Current Version | Previous Version | Text Only | Print | Product List | Glossary On
Versions: 1 2 3 4 5 6 7 8 9 10 11 12 13 14 15 16 17 18 19 20 21 22 23 24 25 26 27 28 29 30 31 32 33 34 35 36 37 38 39 40 41 42 43 44 45 46 47 48 49 50
000 ASUS41 KOKX 041418 RWROKX REGIONAL WEATHER ROUNDUP NATIONAL WEATHER SERVICE NEW YORK NY 1000 AM EDT SAT JUL 04 2015 NOTE: "FAIR" INDICATES FEW OR NO CLOUDS BELOW 12,000 FEET WITH NO SIGNIFICANT WEATHER AND/OR OBSTRUCTIONS TO VISIBILITY. NYZ071-072-176-178-NJZ106-104-041500- NEW YORK CITY METRO AREA CITY SKY/WX TMP DP RH WIND PRES REMARKS CENTRAL PARK CLOUDY 73 60 63 VRB6 29.98R LAGUARDIA APRT CLOUDY 71 62 73 NE10 29.94S KENNEDY INTL CLOUDY 73 60 63 E9 29.95S NEWARK/LIBERTY CLOUDY 73 58 59 E6 29.94S BRNX BOT. GARD N/A 70 59 68 CALM 29.97S TETERBORO CLOUDY 72 60 66 NE3 29.94R $$ NYZ177-179-078>081-041500- LONG ISLAND NEW YORK CITY SKY/WX TMP DP RH WIND PRES REMARKS FARMINGDALE CLOUDY 72 58 61 SE8 29.95S ISLIP CLOUDY 71 61 70 E8 29.93F SHIRLEY CLOUDY 70 61 73 VRB3 29.95F WESTHAMPTON CLOUDY 70 63 78 E8 29.97S MONTAUK POINT N/A 70 65 84 E5 29.98S $$ NYZ052-065-067-041500- HUDSON VALLEY CITY SKY/WX TMP DP RH WIND PRES REMARKS WHITE PLAINS CLOUDY 69 61 75 VRB6 29.96S NEWBURGH PTSUNNY 63 63 100 CALM 30.01R MONTGOMERY LGT RAIN 64 61 90 NW6 29.99R FOG POUGHKEEPSIE CLOUDY 67 61 81 W3 29.98R ALBANY LGT RAIN 63 58 83 CALM 29.98R $$ NJZ001-105-106-008-010-013-015-019>022-104-041500- NEW JERSEY CITY SKY/WX TMP DP RH WIND PRES REMARKS NEWARK/LIBERTY CLOUDY 73 58 59 E6 29.94S TETERBORO CLOUDY 72 60 66 NE3 29.94R CALDWELL CLOUDY 71 60 68 NE5 29.96R MORRISTOWN CLOUDY 73 68 83 NE3 29.96R SOMERVILLE CLOUDY 71 64 78 N3 29.93S SUSSEX LGT RAIN 64 60 87 N3 29.99R ANDOVER N/A 65 61 87 N6 29.99R TRENTON CLOUDY 72 62 71 NE6 29.93S MILLVILLE MOSUNNY 77 62 59 NE10 29.90R ATLANTIC CITY MOSUNNY 75 66 73 E15G21 29.90S WRIGHTSTOWN PTSUNNY 75 62 62 E7 29.90R TOMS RIVER MOSUNNY 75 57 53 E7 29.92F BELMAR PTSUNNY 73 61 64 E10 29.94R $$ PAZ047>061-062-071-041500- EASTERN PENNSYLVANIA CITY SKY/WX TMP DP RH WIND PRES REMARKS PHILADELPHIA CLOUDY 75 62 64 NE7 29.92R ALLENTOWN LGT RAIN 68 64 87 E7 29.97R SCRANTON RAIN 64 63 96 NE5 29.99R FOG $$ CTZ002-004>006-009-010-012-RIZ004-006-007-MAZ004-011-015-041500- SOUTHERN NEW ENGLAND IN CT CITY SKY/WX TMP DP RH WIND PRES REMARKS BRADLEY INTL CLOUDY 66 58 75 N3 29.98S HARTFORD CLOUDY 67 59 75 VRB6 29.98S DANBURY CLOUDY 67 59 75 NE3 29.98F WTRBRY/OXFORD CLOUDY 66 57 72 CALM 30.00S BRIDGEPORT CLOUDY 69 64 84 E10 29.96F MERIDEN CLOUDY 69 61 75 N3 29.97F NEW HAVEN CLOUDY 70 59 68 E7 29.97S CHESTER FAIR 68 61 77 E5 29.99S GROTON CLOUDY 69 61 75 E5 29.97S WILLIMANTIC CLOUDY 68 60 75 NE3 29.99S IN RI CITY SKY/WX TMP DP RH WIND PRES REMARKS PROVIDENCE CLOUDY 69 60 73 SE3 29.99F BLOCK ISLAND CLOUDY 66 63 88 SE10 29.98R WESTERLY CLOUDY 69 64 84 E6 29.98S IN MA CITY SKY/WX TMP DP RH WIND PRES REMARKS BOSTON CLOUDY 68 60 75 CALM 30.00S WORCESTER CLOUDY 66 52 60 SW5 30.01S WESTFIELD CLOUDY 65 57 75 CALM 29.99F PROVINCETOWN CLOUDY 73 14 10 S6 30.00F NANTUCKET CLOUDY 64 58 80 E10 30.00F $$ ANZ330-335-338-340-345-350-353-355-041500- COASTAL MARINE OBSERVATIONS STATION/POSITION TIME SKY/WX TEMP WIND PRES VSBY WAVE AIR SEA DIR/SP/G HT/PER (UTC) (F) (DEG/KT/KT) (MB) (MI) (FT/S) NY HARB ENTRANCE 1350 69 69 80/ 10/ 10 1013.3 3/ 8 4S FIRE IS 1303 70 N/A 3/ 8 20S FIRE ISLAND 1350 69 68 80/ 10/ 12 1013.2 3/ 7 GREAT SOUTH BAY 1300 68 74 120/ 12/ 14 N/A 23SW MTP 1350 68 67 110/ 10/ 12 1013.9 4/ 8 HUDSON CANYON NOT AVBL KINGS POINT 1300 70 68 30/ 3/ 4 1013.4 CENTRAL LI SOUND NOT AVBL EASTERN LI SOUND 1300 66 64 60/ 8/ 10 N/A ROBBINS REEF 1300 71 90/ 8/ 9 1012.7 $$ >>>>>>>>>>>>>>>>>>>>>>>>>>>> KEY <<<<<<<<<<<<<<<<<<<<<<<<<<< > < > SKY/WX - SKY CONDITION/PRESENT WEATHER < > TMP - TEMPERATURE IN FAHRENHEIT < > DP - DEWPOINT IN FAHRENHEIT < > RH - RELATIVE HUMIDITY IN PERCENT < > WIND - DIRECTION AND SPEED IN MPH < > PRES - MEAN SEA LEVEL PRESSURE IN INCHES OF HG < > WCI - WIND CHILL INDEX < > VSB - VISIBILITY IN MILES < > HX - HEAT INDEX < > TC - TEMPERATURE IN CELSIUS < > VRB - VARIABLE WIND DIRECTION < > < >>>>>>>>>>>>>>>>>>>>>>>>>>>> KEY <<<<<<<<<<<<<<<<<<<<<<<<<<<

USA.gov is the U.S. government's official web portal to all federal, state and local government web resources and services.